EW4096 Weather Reports


time (UTC)temp
C
wind
direction
speed
KPH
gust
KPH
rain 1hr
cm
rain 24hr
cm
rain mn
cm
humidity
%
barometer
mb
20260509224551 21 306 0.0 0.0 0.00 0.00 0.00 55 1007.6
20260509223440 21 306 0.0 0.0 0.00 0.00 0.00 55 1007.6
20260509222945 21 306 0.0 0.0 0.00 0.00 0.00 55 1007.5
20260509222941 21 306 0.0 0.0 0.00 0.00 0.00 55 1007.6
20260509221941 21 302 0.0 0.0 0.00 0.00 0.00 53 1007.6
20260509221441 21 302 0.0 0.0 0.00 0.00 0.00 54 1007.6
20260509220940 21 302 0.0 0.0 0.00 0.00 0.00 55 1007.5
20260509220445 22 292 0.0 0.0 0.00 0.00 0.00 53 1007.4
20260509220441 21 302 0.0 0.0 0.00 0.00 0.00 52 1007.5
20260509220045 21 293 0.0 0.0 0.00 0.00 0.00 55 1007.5
20260509215441 21 292 0.0 0.0 0.00 0.00 0.00 54 1007.4
20260509214444 21 293 0.0 0.0 0.00 0.00 0.00 55 1007.4
20260509214440 21 293 0.0 0.0 0.00 0.00 0.00 56 1007.4
20260509213440 21 246 0.0 0.0 0.00 0.00 0.00 55 1007.4
20260509212943 21 294 0.0 0.0 0.00 0.00 0.00 54 1007.4
20260509212938 21 290 0.0 0.0 0.00 0.00 0.00 55 1007.4
20260509211936 21 329 0.0 0.0 0.00 0.00 0.00 55 1007.5
20260509211437 21 340 0.0 0.0 0.00 0.00 0.00 55 1007.5
20260509210938 20 338 0.0 0.0 0.00 0.00 0.00 58 1007.6
20260509210934 21 338 0.0 0.0 0.00 0.00 0.00 57 1007.5
20260509205932 20 339 0.0 0.0 0.00 0.00 0.00 62 1007.6
20260509205430 19 348 0.0 0.0 0.00 0.00 0.00 63 1007.6
20260509204930 19 348 0.0 0.0 0.00 0.00 0.00 60 1007.7
20260509204428 19 17 0.0 0.0 0.00 0.00 0.00 61 1007.8
20260509203928 19 320 0.0 0.0 0.00 0.00 0.00 58 1007.8
20260509203429 19 298 0.0 0.0 0.00 0.00 0.00 59 1007.8
20260509202928 19 355 0.0 0.0 0.00 0.00 0.00 62 1007.8
20260509202428 19 355 0.0 0.0 0.00 0.00 0.00 59 1007.8
20260509201929 19 0 0.0 0.0 0.00 0.00 0.00 59 1007.7
20260509201426 19 0 0.0 0.0 0.00 0.00 0.00 58 1007.7
20260509200926 20 13 0.0 0.0 0.00 0.00 0.00 58 1007.7
20260509200427 20 5 0.0 0.0 0.00 0.00 0.00 57 1007.8
20260509195925 20 306 0.0 0.0 0.00 0.00 0.00 59 1007.8
20260509195424 20 304 0.0 0.0 0.00 0.00 0.00 57 1007.8
20260509194924 20 304 0.0 0.0 0.00 0.00 0.00 58 1007.8
20260509194424 20 302 0.0 0.0 0.00 0.00 0.00 56 1007.9
20260509193924 20 302 0.0 0.0 0.00 0.00 0.00 57 1007.9
20260509193424 20 302 0.0 0.0 0.00 0.00 0.00 56 1007.9
20260509192924 20 304 0.0 0.0 0.00 0.00 0.00 55 1007.9
20260509192425 20 304 0.0 0.0 0.00 0.00 0.00 59 1008.0
20260509191924 20 306 0.0 0.0 0.00 0.00 0.00 58 1007.9
20260509191429 20 308 0.0 0.0 0.00 0.00 0.00 57 1008.1
20260509191424 19 306 0.0 0.0 0.00 0.00 0.00 56 1007.9
20260509190924 19 306 0.0 0.0 0.00 0.00 0.00 57 1008.0
20260509190527 19 309 0.0 0.0 0.00 0.00 0.00 57 1008.2
20260509185422 19 308 0.0 0.0 0.00 0.00 0.00 57 1008.2
20260509184926 19 308 0.0 0.0 0.00 0.00 0.00 56 1008.3
20260509184922 19 308 0.0 0.0 0.00 0.00 0.00 59 1008.3
20260509183922 19 296 0.0 0.0 0.00 0.00 0.00 60 1008.4
20260509183422 19 308 0.0 0.0 0.00 0.00 0.00 56 1008.7
20260509182922 19 252 0.0 0.0 0.00 0.00 0.00 59 1008.6
20260509182422 18 265 0.0 0.0 0.00 0.00 0.00 63 1008.5
20260509181921 18 325 0.0 0.0 0.00 0.00 0.00 65 1008.5
20260509181420 18 16 0.0 0.0 0.00 0.00 0.00 61 1008.6
20260509180919 18 355 0.0 0.0 0.00 0.00 0.00 60 1008.9
20260509180420 18 350 0.0 0.0 0.00 0.00 0.00 64 1008.9
20260509175920 17 350 0.0 0.0 0.00 0.00 0.00 62 1009.0
20260509175420 17 329 0.0 0.0 0.00 0.00 0.00 61 1009.3
20260509174920 18 329 0.0 0.0 0.00 0.00 0.00 61 1009.5
20260509174420 17 155 0.0 0.0 0.00 0.00 0.00 62 1009.5
20260509173920 17 157 0.0 0.0 0.00 0.00 0.00 63 1009.7
20260509173420 17 157 0.0 0.0 0.00 0.00 0.00 65 1009.6
20260509172920 17 157 0.0 0.0 0.00 0.00 0.00 68 1009.8
20260509172420 17 242 0.0 0.0 0.00 0.00 0.00 65 1009.8
20260509171920 17 286 0.0 0.0 0.00 0.00 0.00 64 1010.1
20260509171419 17 316 0.0 0.0 0.00 0.00 0.00 65 1010.2
20260509170920 16 316 0.0 0.0 0.00 0.00 0.00 66 1010.3
20260509170420 16 316 0.0 0.0 0.00 0.00 0.00 66 1010.2
20260509165919 16 316 0.0 0.0 0.00 0.00 0.00 66 1010.1
20260509165420 17 315 0.0 0.0 0.00 0.00 0.00 65 1010.1
20260509164918 17 338 0.0 0.0 0.00 0.00 0.00 65 1009.9
20260509164422 17 338 0.0 0.0 0.00 0.00 0.00 64 1009.7
20260509163918 17 338 0.0 0.0 0.00 0.00 0.00 65 1009.6
20260509163418 17 5 0.0 0.0 0.00 0.00 0.00 64 1009.6
20260509162918 17 5 0.0 0.0 0.00 0.00 0.00 66 1009.7
20260509162427 17 355 0.0 0.0 0.00 0.00 0.00 66 1009.8
20260509162423 17 323 0.0 0.0 0.00 0.00 0.00 65 1009.7
20260509161418 17 355 0.0 0.0 0.00 0.00 0.00 62 1009.9
20260509160918 17 355 0.0 0.0 0.00 0.00 0.00 63 1009.9
20260509160421 17 5 0.0 0.0 0.00 0.00 0.00 62 1009.8
20260509160417 17 17 0.0 0.0 0.00 0.00 0.00 63 1009.8
20260509155415 17 5 0.0 0.0 0.00 0.00 0.00 61 1009.9
20260509154916 17 5 0.0 0.0 0.00 0.00 0.00 61 1010.1
20260509154416 17 21 0.0 0.0 0.00 0.00 0.00 61 1010.1
20260509153916 17 28 0.0 0.0 0.00 0.00 0.00 62 1009.9
20260509153416 16 28 0.0 0.0 0.00 0.00 0.00 62 1010.1
20260509152913 16 28 0.0 0.0 0.00 0.00 0.00 64 1010.2
20260509152414 16 13 0.0 0.0 0.00 0.00 0.00 63 1010.2
20260509151912 16 13 0.0 0.0 0.00 0.00 0.00 62 1010.2
20260509151413 16 9 0.0 0.0 0.00 0.00 0.00 64 1010.3
20260509151409 16 9 0.0 0.0 0.00 0.00 0.00 64 1010.3
20260509150408 16 257 0.0 0.0 0.00 0.00 0.00 66 1010.4
20260509145905 16 267 0.0 0.0 0.00 0.00 0.00 66 1010.5
20260509145406 15 267 0.0 0.0 0.00 0.00 0.00 67 1010.5
20260509144903 15 267 0.0 0.0 0.00 0.00 0.00 69 1010.5
20260509144404 15 153 0.0 0.0 0.00 0.00 0.00 70 1010.5
20260509143906 15 153 0.0 0.0 0.00 0.00 0.00 71 1010.5
20260509143902 15 153 0.0 0.0 0.00 0.00 0.00 71 1010.4
20260509143006 14 153 0.0 0.0 0.00 0.00 0.00 70 1009.9
20260509142906 15 153 0.0 0.0 0.00 0.00 0.00 70 1010.5
20260509142902 15 153 0.0 0.0 0.00 0.00 0.00 72 1010.5
20260509141902 14 153 0.0 0.0 0.00 0.00 0.00 69 1010.3
20260509140902 14 153 0.0 0.0 0.00 0.00 0.00 70 1009.8
20260509140402 14 153 0.0 0.0 0.00 0.00 0.00 71 1009.7
20260509135901 14 153 0.0 0.0 0.00 0.00 0.00 72 1009.8
20260509135402 14 153 0.0 0.0 0.00 0.00 0.00 73 1009.9
20260509134903 14 153 0.0 0.0 0.00 0.00 0.00 73 1009.9
20260509134401 14 153 0.0 0.0 0.00 0.00 0.00 73 1010.1
20260509133902 14 153 0.0 0.0 0.00 0.00 0.00 72 1010.1
20260509133401 14 153 0.0 0.0 0.00 0.00 0.00 70 1010.2
20260509132902 14 153 0.0 0.0 0.00 0.00 0.00 70 1010.3
20260509132402 14 153 0.0 0.0 0.00 0.00 0.00 69 1010.1
20260509131901 14 153 0.0 0.0 0.00 0.00 0.00 71 1009.9
20260509131406 13 153 0.0 0.0 0.00 0.00 0.00 68 1009.8
20260509131402 13 153 0.0 0.0 0.00 0.00 0.00 70 1009.9
20260509130400 13 153 0.0 0.0 0.00 0.00 0.00 68 1009.8
20260509125858 13 153 0.0 0.0 0.00 0.00 0.00 68 1009.9
20260509125357 13 153 0.0 0.0 0.00 0.00 0.00 67 1009.8
20260509124856 13 168 0.0 0.0 0.00 0.00 0.00 68 1009.7
20260509124353 13 180 0.0 0.0 0.00 0.00 0.00 69 1009.7
20260509123853 13 182 0.0 0.0 0.00 0.00 0.00 69 1009.7
20260509123358 13 182 0.0 0.0 0.00 0.00 0.00 67 1009.7
20260509123354 13 182 0.0 0.0 0.00 0.00 0.00 67 1009.7
20260509122853 13 182 0.0 0.0 0.00 0.00 0.00 67 1009.7
20260509121853 13 182 0.0 0.0 0.00 0.00 0.00 66 1009.8
20260509121353 13 182 0.0 0.0 0.00 0.00 0.00 65 1009.8
20260509120857 14 187 0.0 0.0 0.00 0.00 0.00 62 1009.7
20260509120853 14 181 0.0 0.0 0.00 0.00 0.00 65 1009.9
20260509120351 14 187 0.0 0.0 0.00 0.00 0.00 63 1009.9
20260509115352 14 299 0.0 0.0 0.00 0.00 0.00 60 1009.6
20260509114851 14 291 0.0 0.0 0.00 0.00 0.00 59 1009.3
20260509114351 14 190 0.0 0.0 0.00 0.00 0.00 59 1009.4
20260509113852 14 190 0.0 0.0 0.00 0.00 0.00 59 1009.6
20260509113349 14 292 0.0 1.6 0.00 0.00 0.00 60 1009.5
20260509112855 13 263 0.0 0.0 0.00 0.00 0.00 62 1009.6
20260509112849 13 280 0.0 1.6 0.00 0.00 0.00 61 1009.4
20260509112458 13 279 0.0 0.0 0.00 0.00 0.00 62 1009.6
20260509112350 13 284 0.0 0.0 0.00 0.00 0.00 61 1009.5
20260509110847 13 245 0.0 0.0 0.00 0.00 0.00 63 1009.6
20260509110347 12 189 0.0 0.0 0.00 0.00 0.00 65 1009.6
20260509105851 12 144 0.0 0.0 0.00 0.00 0.00 69 1009.6
20260509105847 12 153 0.0 0.0 0.00 0.00 0.00 68 1009.5
20260509104847 12 144 0.0 0.0 0.00 0.00 0.00 69 1009.4
20260509104347 12 144 0.0 0.0 0.00 0.00 0.00 67 1009.4
20260509103848 12 144 0.0 0.0 0.00 0.00 0.00 66 1009.4
20260509103351 12 144 0.0 0.0 0.00 0.00 0.00 66 1009.5
20260509103347 12 144 0.0 0.0 0.00 0.00 0.00 66 1009.4
20260509102345 12 144 0.0 0.0 0.00 0.00 0.00 66 1009.5
20260509101845 12 144 0.0 0.0 0.00 0.00 0.00 66 1009.5
20260509101346 12 144 0.0 0.0 0.00 0.00 0.00 66 1009.4
20260509100845 12 144 0.0 0.0 0.00 0.00 0.00 65 1009.3
20260509100346 12 144 0.0 0.0 0.00 0.00 0.00 65 1009.4
20260509095845 12 144 0.0 0.0 0.00 0.00 0.00 65 1009.5
20260509095345 12 144 0.0 0.0 0.00 0.00 0.00 65 1009.4
20260509094845 12 144 0.0 0.0 0.00 0.00 0.00 64 1009.4
20260509094345 12 144 0.0 0.0 0.00 0.00 0.00 63 1009.4
20260509093845 12 144 0.0 0.0 0.00 0.00 0.00 63 1009.4
20260509093347 13 144 0.0 0.0 0.00 0.00 0.00 63 1009.5
20260509093343 13 144 0.0 0.0 0.00 0.00 0.00 63 1009.4
20260509092343 13 144 0.0 0.0 0.00 0.00 0.00 63 1009.4
20260509091843 13 126 0.0 0.0 0.00 0.00 0.00 63 1009.5
20260509091343 13 126 0.0 0.0 0.00 0.00 0.00 62 1009.5
20260509090843 13 242 0.0 0.0 0.00 0.00 0.00 62 1009.4
20260509090343 13 248 0.0 0.0 0.00 0.00 0.00 63 1009.4
20260509085847 13 277 0.0 0.0 0.00 0.00 0.00 63 1009.6
20260509085843 13 271 0.0 0.0 0.00 0.00 0.00 63 1009.5
20260509084842 13 274 0.0 0.0 0.00 0.00 0.00 63 1009.6
20260509084341 13 275 0.0 0.0 0.00 0.00 0.00 63 1009.5
20260509083845 12 190 0.0 0.0 0.00 0.00 0.00 63 1009.7
20260509083841 13 227 0.0 0.0 0.00 0.00 0.00 63 1009.6
20260509082841 12 190 0.0 0.0 0.00 0.00 0.00 64 1009.6
20260509082341 12 190 0.0 0.0 0.00 0.00 0.00 64 1009.7
20260509081841 12 118 0.0 0.0 0.00 0.00 0.00 64 1009.7
20260509081341 12 94 0.0 0.0 0.00 0.00 0.00 64 1009.6
20260509080841 12 94 0.0 0.0 0.00 0.00 0.00 64 1009.6
20260509080341 12 94 0.0 0.0 0.00 0.00 0.00 65 1009.6
20260509075840 12 211 0.0 0.0 0.00 0.00 0.00 64 1009.6
20260509075341 12 211 0.0 0.0 0.00 0.00 0.00 65 1009.6
20260509074843 12 244 0.0 0.0 0.00 0.00 0.00 65 1009.6
20260509074839 12 209 0.0 0.0 0.00 0.00 0.00 64 1009.5
20260509073837 12 244 0.0 0.0 0.00 0.00 0.00 65 1009.7
20260509073337 12 244 0.0 0.0 0.00 0.00 0.00 66 1009.7
20260509072835 12 244 0.0 0.0 0.00 0.00 0.00 66 1009.7
20260509072339 12 212 0.0 0.0 0.00 0.00 0.00 67 1009.7
20260509072335 12 247 0.0 0.0 0.00 0.00 0.00 67 1009.8
20260509071333 11 227 0.0 0.0 0.00 0.00 0.00 68 1009.8
20260509070837 11 245 0.0 0.0 0.00 0.00 0.00 70 1009.7
20260509070832 11 227 0.0 0.0 0.00 0.00 0.00 70 1009.8
20260509070435 11 245 0.0 0.0 0.00 0.00 0.00 71 1009.8
20260509065940 11 245 0.0 0.0 0.00 0.00 0.00 73 1009.8
20260509064827 11 245 0.0 0.0 0.00 0.00 0.00 74 1009.8
20260509064326 11 245 0.0 0.0 0.00 0.00 0.00 73 1009.8
20260509063827 11 245 0.0 0.0 0.00 0.00 0.00 73 1009.8
20260509063327 11 245 0.0 0.0 0.00 0.00 0.00 73 1009.9
20260509062826 11 245 0.0 0.0 0.00 0.00 0.00 73 1010.1
20260509062331 11 245 0.0 0.0 0.00 0.00 0.00 72 1010.2
20260509062327 11 245 0.0 0.0 0.00 0.00 0.00 72 1010.1
20260509061930 11 245 0.0 0.0 0.00 0.00 0.00 73 1010.2
20260509061435 10 245 0.0 0.0 0.00 0.00 0.00 74 1010.3
20260509061431 11 245 0.0 0.0 0.00 0.00 0.00 74 1010.2
20260509055827 10 245 0.0 0.0 0.00 0.00 0.00 75 1010.2
20260509055326 10 245 0.0 0.0 0.00 0.00 0.00 76 1010.2
20260509054827 10 245 0.0 0.0 0.00 0.00 0.00 77 1010.3
20260509054326 10 245 0.0 0.0 0.00 0.00 0.00 78 1010.3
20260509053826 10 245 0.0 0.0 0.00 0.00 0.00 79 1010.3
20260509053327 10 245 0.0 0.0 0.00 0.00 0.00 79 1010.3
20260509052826 10 245 0.0 0.0 0.00 0.00 0.00 79 1010.3
20260509052327 10 245 0.0 0.0 0.00 0.00 0.00 78 1010.2
20260509051827 9 245 0.0 0.0 0.00 0.00 0.00 77 1010.2
20260509051324 10 245 0.0 0.0 0.00 0.00 0.00 77 1010.2
20260509050827 10 245 0.0 0.0 0.00 0.00 0.00 77 1010.5
20260509050823 10 245 0.0 0.0 0.00 0.00 0.00 77 1010.4
20260509050320 10 245 0.0 0.0 0.00 0.00 0.00 77 1010.5
20260509045315 10 245 0.0 0.0 0.00 0.00 0.00 77 1010.6
20260509044819 10 245 0.0 0.0 0.00 0.00 0.00 76 1010.6
20260509044815 10 245 0.0 0.0 0.00 0.00 0.00 77 1010.6
20260509044314 10 245 0.0 0.0 0.00 0.00 0.00 77 1010.6
20260509043916 10 245 0.0 0.0 0.00 0.00 0.00 76 1010.6
20260509042809 10 245 0.0 0.0 0.00 0.00 0.00 75 1010.6
20260509042308 10 245 0.0 0.0 0.00 0.00 0.00 75 1010.6
20260509041807 10 245 0.0 0.0 0.00 0.00 0.00 74 1010.6
20260509041307 10 245 0.0 0.0 0.00 0.00 0.00 74 1010.6
20260509040806 10 245 0.0 0.0 0.00 0.00 0.00 75 1010.6
20260509040305 10 245 0.0 0.0 0.00 0.00 0.00 74 1010.7
20260509035805 10 245 0.0 0.0 0.00 0.00 0.00 74 1010.6
20260509035306 10 245 0.0 0.0 0.00 0.00 0.00 73 1010.7
20260509034803 10 245 0.0 0.0 0.00 0.00 0.00 73 1010.7
20260509034307 10 245 0.0 0.0 0.00 0.00 0.00 73 1010.7
20260509034303 10 245 0.0 0.0 0.00 0.00 0.00 73 1010.7
20260509033911 10 245 0.0 0.0 0.00 0.00 0.00 73 1010.7
20260509033907 10 245 0.0 0.0 0.00 0.00 0.00 73 1010.7
20260509032306 11 245 0.0 0.0 0.00 0.00 0.00 72 1010.6
20260509031803 11 245 0.0 0.0 0.00 0.00 0.00 72 1010.6
20260509031303 11 245 0.0 0.0 0.00 0.00 0.00 72 1010.6
20260509030803 11 245 0.0 0.0 0.00 0.00 0.00 72 1010.6
20260509030301 11 245 0.0 0.0 0.00 0.00 0.00 71 1010.8
20260509025801 11 245 0.0 0.0 0.00 0.00 0.00 71 1010.9
20260509025301 11 245 0.0 0.0 0.00 0.00 0.00 70 1010.9
20260509024801 11 245 0.0 0.0 0.00 0.00 0.00 70 1010.9
20260509024301 11 245 0.0 0.0 0.00 0.00 0.00 70 1011.0
20260509023801 11 245 0.0 0.0 0.00 0.00 0.00 71 1011.0
20260509023301 11 245 0.0 0.0 0.00 0.00 0.00 71 1011.0
20260509022801 12 245 0.0 0.0 0.00 0.00 0.00 71 1011.0
20260509022306 12 245 0.0 0.0 0.00 0.00 0.00 71 1011.0
20260509021800 12 245 0.0 0.0 0.00 0.00 0.00 71 1011.0
20260509021259 12 245 0.0 0.0 0.00 0.00 0.00 70 1011.0
20260509020759 12 245 0.0 0.0 0.00 0.00 0.00 69 1011.0
20260509020259 12 245 0.0 0.0 0.00 0.00 0.00 69 1010.9
20260509015759 12 245 0.0 0.0 0.00 0.00 0.00 70 1010.8
20260509015306 13 245 0.0 0.0 0.00 0.00 0.00 69 1011.0
20260509015259 13 245 0.0 0.0 0.00 0.00 0.00 69 1010.9
20260509014907 13 245 0.0 0.0 0.00 0.00 0.00 68 1010.9
20260509014903 13 245 0.0 0.0 0.00 0.00 0.00 69 1010.9
20260509013759 13 245 0.0 0.0 0.00 0.00 0.00 69 1011.0
20260509013403 13 245 0.0 0.0 0.00 0.00 0.00 69 1010.8
20260509012257 13 245 0.0 0.0 0.00 0.00 0.00 68 1010.9
20260509011757 13 245 0.0 0.0 0.00 0.00 0.00 68 1010.9
20260509011256 13 245 0.0 0.0 0.00 0.00 0.00 66 1010.8
20260509010757 14 245 0.0 0.0 0.00 0.00 0.00 66 1010.7
20260509010302 14 245 0.0 0.0 0.00 0.00 0.00 66 1010.7
20260509005757 14 245 0.0 0.0 0.00 0.00 0.00 65 1010.6
20260509005257 14 245 0.0 0.0 0.00 0.00 0.00 65 1010.6
20260509004757 15 245 0.0 0.0 0.00 0.00 0.00 64 1010.7
20260509004317 15 245 0.0 0.0 0.00 0.00 0.00 64 1010.7
20260509003757 15 245 0.0 0.0 0.00 0.00 0.00 63 1010.7
20260509003257 15 245 0.0 0.0 0.00 0.00 0.00 63 1010.6
20260509002755 15 245 0.0 0.0 0.00 0.00 0.00 60 1010.7
20260509002253 15 245 0.0 0.0 0.00 0.00 0.00 60 1010.6
20260509001753 16 245 0.0 0.0 0.00 0.00 0.00 58 1010.6
20260509001252 16 245 0.0 0.0 0.00 0.00 0.00 56 1010.5
20260509000753 16 245 0.0 0.0 0.00 0.00 0.00 56 1010.5
20260509000253 16 245 0.0 0.0 0.00 0.00 0.00 53 1010.5
20260508235752 17 245 0.0 0.0 0.00 0.00 0.00 51 1010.4
20260508235256 17 245 0.0 0.0 0.00 0.00 0.00 49 1010.4
20260508235251 17 245 0.0 0.0 0.00 0.00 0.00 48 1010.3
20260508234255 18 245 0.0 0.0 0.00 0.00 0.00 44 1010.2
20260508234251 18 245 0.0 0.0 0.00 0.00 0.00 47 1010.2
20260508233250 18 245 0.0 0.0 0.00 0.00 0.00 43 1010.2
20260508232752 18 245 0.0 0.0 0.00 0.00 0.00 41 1009.9
20260508232747 18 245 0.0 0.0 0.00 0.00 0.00 40 1009.9
20260508231747 18 245 0.0 0.0 0.00 0.00 0.00 40 1009.9
20260508231245 18 13 0.0 0.0 0.00 0.00 0.00 41 1009.8
20260508230745 18 13 0.0 0.0 0.00 0.00 0.00 41 1009.8
20260508230249 18 5 0.0 0.0 0.00 0.00 0.00 40 1009.8
20260508230245 18 26 0.0 0.0 0.00 0.00 0.00 42 1009.8
20260508225744 18 303 0.0 0.0 0.00 0.00 0.00 40 1009.8
20260508225349 18 265 0.0 0.0 0.00 0.00 0.00 41 1009.9